| time (UTC) | temp F | wind direction | speed knots | gust knots | rain 1hr in | rain 24hr in | rain mn in | humidity % | barometer mb |
| 20260505184519 | 57 | 354 | 0.9 | 4.3 | 0.00 | 0.00 | 0.00 | 38 | 1039.3 |
| 20260505184015 | 58 | 332 | 1.7 | 7.8 | 0.00 | 0.00 | 0.00 | 37 | 1039.3 |
| 20260505183512 | 57 | 288 | 1.7 | 4.3 | 0.00 | 0.00 | 0.00 | 41 | 1039.2 |
| 20260505183009 | 55 | 301 | 1.7 | 4.3 | 0.00 | 0.00 | 0.00 | 40 | 1039.0 |
| 20260505182506 | 56 | 284 | 2.6 | 7.0 | 0.00 | 0.00 | 0.00 | 39 | 1039.0 |
| 20260505182002 | 55 | 241 | 3.5 | 8.7 | 0.00 | 0.00 | 0.00 | 35 | 1039.2 |
| 20260505181459 | 56 | 288 | 2.6 | 4.3 | 0.00 | 0.00 | 0.00 | 39 | 1039.0 |
| 20260505180956 | 56 | 196 | 1.7 | 8.7 | 0.00 | 0.00 | 0.00 | 47 | 1039.0 |
| 20260505180452 | 56 | 185 | 2.6 | 7.0 | 0.00 | 0.00 | 0.00 | 46 | 1038.7 |
| 20260505175949 | 56 | 321 | 0.9 | 5.2 | 0.00 | 0.00 | 0.00 | 37 | 1038.7 |
| 20260505175445 | 55 | 330 | 2.6 | 4.3 | 0.00 | 0.00 | 0.00 | 37 | 1038.9 |
| 20260505174942 | 56 | 278 | 2.6 | 7.0 | 0.00 | 0.00 | 0.00 | 37 | 1038.8 |
| 20260505174439 | 56 | 6 | 1.7 | 2.6 | 0.00 | 0.00 | 0.00 | 37 | 1038.7 |
| 20260505173935 | 57 | 245 | 2.6 | 4.3 | 0.00 | 0.00 | 0.00 | 39 | 1038.9 |
| 20260505173432 | 55 | 321 | 2.6 | 5.2 | 0.00 | 0.00 | 0.00 | 41 | 1039.0 |
| 20260505172929 | 55 | 324 | 2.6 | 5.2 | 0.00 | 0.00 | 0.00 | 39 | 1039.1 |
| 20260505172428 | 55 | 225 | 0.9 | 6.1 | 0.00 | 0.00 | 0.00 | 45 | 1039.1 |
| 20260505171926 | 54 | 254 | 3.5 | 7.8 | 0.00 | 0.00 | 0.00 | 41 | 1038.9 |
| 20260505171424 | 55 | 344 | 2.6 | 5.2 | 0.00 | 0.00 | 0.00 | 41 | 1039.2 |
| 20260505170920 | 54 | 303 | 0.9 | 5.2 | 0.00 | 0.00 | 0.00 | 41 | 1039.3 |
| 20260505170417 | 54 | 301 | 3.5 | 6.1 | 0.00 | 0.00 | 0.00 | 40 | 1039.3 |
| 20260505165912 | 55 | 292 | 3.5 | 7.0 | 0.00 | 0.00 | 0.00 | 40 | 1039.1 |
| 20260505165409 | 55 | 307 | 1.7 | 5.2 | 0.00 | 0.00 | 0.00 | 41 | 1039.2 |
| 20260505164904 | 54 | 281 | 2.6 | 6.1 | 0.00 | 0.00 | 0.00 | 40 | 1039.3 |
| 20260505164401 | 54 | 282 | 0.9 | 6.1 | 0.00 | 0.00 | 0.00 | 39 | 1039.2 |
| 20260505163859 | 54 | 279 | 2.6 | 4.3 | 0.00 | 0.00 | 0.00 | 42 | 1039.0 |
| 20260505163358 | 53 | 285 | 1.7 | 6.1 | 0.00 | 0.00 | 0.00 | 41 | 1039.0 |
| 20260505162856 | 53 | 20 | 3.5 | 7.0 | 0.00 | 0.00 | 0.00 | 39 | 1039.1 |
| 20260505162351 | 54 | 331 | 2.6 | 5.2 | 0.00 | 0.00 | 0.00 | 42 | 1038.9 |
| 20260505161849 | 54 | 324 | 3.5 | 7.0 | 0.00 | 0.00 | 0.00 | 37 | 1039.0 |
| 20260505161345 | 54 | 265 | 4.3 | 9.6 | 0.00 | 0.00 | 0.00 | 38 | 1038.9 |
| 20260505160843 | 54 | 298 | 3.5 | 5.2 | 0.00 | 0.00 | 0.00 | 39 | 1039.2 |
| 20260505160341 | 53 | 11 | 1.7 | 4.3 | 0.00 | 0.00 | 0.00 | 38 | 1038.8 |
| 20260505153320 | 53 | 112 | 2.6 | 5.2 | 0.00 | 0.00 | 0.00 | 37 | 1038.9 |
| 20260505152816 | 52 | 98 | 2.6 | 6.1 | 0.00 | 0.00 | 0.00 | 36 | 1038.8 |
| 20260505152313 | 52 | 137 | 1.7 | 6.1 | 0.00 | 0.00 | 0.00 | 36 | 1038.8 |
| 20260505151808 | 52 | 291 | 4.3 | 6.1 | 0.00 | 0.00 | 0.00 | 37 | 1038.8 |
| 20260505151305 | 52 | 308 | 2.6 | 4.3 | 0.00 | 0.00 | 0.00 | 35 | 1038.7 |
| 20260505150802 | 52 | 216 | 1.7 | 8.7 | 0.00 | 0.00 | 0.00 | 34 | 1038.8 |
| 20260505150259 | 52 | 47 | 1.7 | 4.3 | 0.00 | 0.00 | 0.00 | 35 | 1038.6 |
| 20260505140223 | 48 | 335 | 1.7 | 2.6 | 0.00 | 0.00 | 0.00 | 48 | 1039.2 |
| 20260505130147 | 47 | 330 | 1.7 | 6.1 | 0.00 | 0.00 | 0.00 | 57 | 1039.2 |
| 20260505124637 | 44 | 235 | 2.6 | 4.3 | 0.00 | 0.00 | 0.00 | 64 | 1039.2 |
| 20260505124134 | 44 | 128 | 1.7 | 1.7 | 0.00 | 0.00 | 0.00 | 67 | 1039.4 |
| 20260505123630 | 43 | 7 | 0.9 | 2.6 | 0.00 | 0.00 | 0.00 | 68 | 1039.3 |
| 20260505123126 | 43 | 26 | 0.0 | 2.6 | 0.00 | 0.00 | 0.00 | 72 | 1039.1 |
| 20260505122623 | 42 | 355 | 0.9 | 0.9 | 0.00 | 0.00 | 0.00 | 73 | 1039.2 |
| 20260505122121 | 41 | 70 | 0.9 | 1.7 | 0.00 | 0.00 | 0.00 | 79 | 1039.3 |
| 20260505121617 | 41 | 90 | 0.9 | 1.7 | 0.00 | 0.00 | 0.00 | 79 | 1039.1 |
| 20260505121114 | 41 | 55 | 0.9 | 1.7 | 0.00 | 0.00 | 0.00 | 80 | 1039.0 |
| 20260505120610 | 41 | 53 | 0.9 | 1.7 | 0.00 | 0.00 | 0.00 | 79 | 1039.0 |
| 20260505120106 | 41 | 58 | 0.9 | 1.7 | 0.00 | 0.00 | 0.00 | 77 | 1038.9 |
| 20260505115600 | 39 | 68 | 1.7 | 1.7 | 0.00 | 0.00 | 0.00 | 78 | 1039.0 |
| 20260505115058 | 39 | 54 | 0.9 | 1.7 | 0.00 | 0.00 | 0.00 | 82 | 1038.8 |
| 20260505114555 | 39 | 73 | 1.7 | 1.7 | 0.00 | 0.00 | 0.00 | 81 | 1038.7 |
| 20260505114051 | 39 | 52 | 0.9 | 0.9 | 0.00 | 0.00 | 0.00 | 83 | 1038.4 |
| 20260505113548 | 39 | 25 | 0.0 | 0.9 | 0.00 | 0.00 | 0.00 | 79 | 1038.1 |
| 20260505113044 | 39 | 24 | 0.0 | 0.9 | 0.00 | 0.00 | 0.00 | 79 | 1037.7 |
| 20260505112540 | 39 | 24 | 0.0 | 0.0 | 0.00 | 0.00 | 0.00 | 75 | 1037.6 |
| 20260505112038 | 39 | 24 | 0.0 | 0.0 | 0.00 | 0.00 | 0.00 | 75 | 1037.2 |
| 20260505111532 | 39 | 24 | 0.0 | 0.0 | 0.00 | 0.00 | 0.00 | 75 | 1037.2 |
| 20260505111029 | 39 | 24 | 0.0 | 0.0 | 0.00 | 0.00 | 0.00 | 73 | 1036.9 |
| 20260505110525 | 39 | 24 | 0.0 | 0.0 | 0.00 | 0.00 | 0.00 | 72 | 1036.9 |
| 20260505101958 | 40 | 6 | 0.0 | 0.0 | 0.00 | 0.00 | 0.00 | 67 | 1037.3 |
| 20260505101455 | 41 | 6 | 0.0 | 0.0 | 0.00 | 0.00 | 0.00 | 68 | 1037.4 |
| 20260505100952 | 41 | 6 | 0.0 | 0.0 | 0.00 | 0.00 | 0.00 | 67 | 1037.4 |
| 20260505100449 | 41 | 6 | 0.0 | 0.0 | 0.00 | 0.00 | 0.00 | 67 | 1036.9 |
| 20260505095945 | 42 | 6 | 0.0 | 0.0 | 0.00 | 0.00 | 0.00 | 67 | 1037.2 |
| 20260505095442 | 43 | 6 | 0.0 | 0.0 | 0.00 | 0.00 | 0.00 | 62 | 1037.1 |
| 20260505094938 | 43 | 6 | 0.0 | 0.0 | 0.00 | 0.00 | 0.00 | 60 | 1037.1 |
| 20260505094435 | 44 | 5 | 0.0 | 0.9 | 0.00 | 0.00 | 0.00 | 59 | 1037.1 |
| 20260505093931 | 44 | 6 | 0.0 | 0.0 | 0.00 | 0.00 | 0.00 | 59 | 1036.8 |
| 20260505093428 | 44 | 11 | 0.0 | 0.9 | 0.00 | 0.00 | 0.00 | 58 | 1036.8 |
| 20260505092925 | 44 | 6 | 0.0 | 0.9 | 0.00 | 0.00 | 0.00 | 58 | 1036.8 |
| 20260505092423 | 45 | 13 | 0.0 | 0.0 | 0.00 | 0.00 | 0.00 | 57 | 1036.5 |
| 20260505091920 | 45 | 8 | 0.0 | 1.7 | 0.00 | 0.00 | 0.00 | 56 | 1036.8 |
| 20260505091418 | 45 | 354 | 0.9 | 0.9 | 0.00 | 0.00 | 0.00 | 55 | 1036.8 |
| 20260505090916 | 45 | 18 | 0.9 | 0.9 | 0.00 | 0.00 | 0.00 | 55 | 1036.7 |
| 20260505090414 | 45 | 11 | 0.0 | 0.0 | 0.00 | 0.00 | 0.00 | 54 | 1036.7 |
| 20260505085911 | 46 | 10 | 0.0 | 0.9 | 0.00 | 0.00 | 0.00 | 53 | 1036.7 |
| 20260505085409 | 46 | 354 | 0.0 | 1.7 | 0.00 | 0.00 | 0.00 | 51 | 1037.0 |
| 20260505084907 | 46 | 352 | 0.9 | 4.3 | 0.00 | 0.00 | 0.00 | 51 | 1037.1 |
| 20260505084405 | 46 | 335 | 0.9 | 2.6 | 0.00 | 0.00 | 0.00 | 52 | 1036.9 |
| 20260505083902 | 46 | 354 | 1.7 | 2.6 | 0.00 | 0.00 | 0.00 | 52 | 1036.7 |
| 20260505083400 | 46 | 337 | 0.9 | 1.7 | 0.00 | 0.00 | 0.00 | 53 | 1036.2 |
| 20260505082855 | 46 | 357 | 0.9 | 0.9 | 0.00 | 0.00 | 0.00 | 56 | 1035.9 |
| 20260505082351 | 46 | 354 | 1.7 | 1.7 | 0.00 | 0.00 | 0.00 | 55 | 1035.9 |
| 20260505081849 | 46 | 22 | 0.0 | 0.9 | 0.00 | 0.00 | 0.00 | 54 | 1035.6 |
| 20260505081345 | 46 | 20 | 0.0 | 0.9 | 0.00 | 0.00 | 0.00 | 53 | 1035.5 |
| 20260505080842 | 47 | 14 | 0.9 | 1.7 | 0.00 | 0.00 | 0.00 | 52 | 1035.6 |
| 20260505080338 | 47 | 296 | 0.9 | 1.7 | 0.00 | 0.00 | 0.00 | 52 | 1035.4 |
| 20260505075833 | 47 | 35 | 0.9 | 1.7 | 0.00 | 0.00 | 0.00 | 52 | 1035.4 |
| 20260505075331 | 48 | 14 | 1.7 | 1.7 | 0.00 | 0.00 | 0.00 | 52 | 1035.4 |
| 20260505074828 | 47 | 72 | 0.9 | 2.6 | 0.00 | 0.00 | 0.00 | 52 | 1035.1 |
| 20260505074325 | 47 | 20 | 0.0 | 0.9 | 0.00 | 0.00 | 0.00 | 53 | 1035.3 |
| 20260505073822 | 48 | 53 | 1.7 | 1.7 | 0.00 | 0.00 | 0.00 | 52 | 1035.1 |
| 20260505073320 | 48 | 37 | 1.7 | 4.3 | 0.00 | 0.00 | 0.00 | 52 | 1034.8 |
| 20260505072817 | 48 | 9 | 2.6 | 4.3 | 0.00 | 0.00 | 0.00 | 52 | 1034.6 |
| 20260505072313 | 48 | 45 | 0.9 | 2.6 | 0.00 | 0.00 | 0.00 | 52 | 1034.4 |
| 20260505071809 | 48 | 26 | 0.9 | 2.6 | 0.00 | 0.00 | 0.00 | 53 | 1034.3 |
| 20260505071306 | 48 | 30 | 0.9 | 2.6 | 0.00 | 0.00 | 0.00 | 54 | 1034.2 |
| 20260505070804 | 48 | 23 | 0.9 | 1.7 | 0.00 | 0.00 | 0.00 | 55 | 1034.5 |
| 20260505070300 | 48 | 16 | 0.9 | 1.7 | 0.00 | 0.00 | 0.00 | 54 | 1034.3 |
| 20260505065755 | 49 | 18 | 0.9 | 1.7 | 0.00 | 0.00 | 0.00 | 54 | 1034.4 |
| 20260505065252 | 49 | 5 | 0.0 | 1.7 | 0.00 | 0.00 | 0.00 | 54 | 1034.5 |
| 20260505064749 | 49 | 49 | 2.6 | 4.3 | 0.00 | 0.00 | 0.00 | 53 | 1034.3 |
| 20260505064247 | 50 | 26 | 0.9 | 2.6 | 0.00 | 0.00 | 0.00 | 53 | 1034.1 |
| 20260505063744 | 50 | 300 | 2.6 | 2.6 | 0.00 | 0.00 | 0.00 | 54 | 1033.9 |
| 20260505063240 | 50 | 305 | 1.7 | 2.6 | 0.00 | 0.00 | 0.00 | 55 | 1033.8 |
| 20260505062737 | 50 | 25 | 0.9 | 2.6 | 0.00 | 0.00 | 0.00 | 54 | 1033.8 |
| 20260505062234 | 50 | 325 | 1.7 | 4.3 | 0.00 | 0.00 | 0.00 | 55 | 1033.8 |
| 20260505061731 | 51 | 280 | 0.9 | 2.6 | 0.00 | 0.00 | 0.00 | 53 | 1033.8 |
| 20260505061229 | 51 | 30 | 2.6 | 2.6 | 0.00 | 0.00 | 0.00 | 54 | 1033.8 |
| 20260505060726 | 51 | 267 | 3.5 | 5.2 | 0.00 | 0.00 | 0.00 | 53 | 1033.5 |
| 20260505060224 | 52 | 23 | 3.5 | 4.3 | 0.00 | 0.00 | 0.00 | 52 | 1033.4 |
| 20260505055718 | 51 | 40 | 1.7 | 2.6 | 0.00 | 0.00 | 0.00 | 54 | 1033.6 |
| 20260505055215 | 51 | 39 | 0.9 | 1.7 | 0.00 | 0.00 | 0.00 | 54 | 1033.5 |
| 20260505054713 | 52 | 18 | 0.9 | 4.3 | 0.00 | 0.00 | 0.00 | 53 | 1033.4 |
| 20260505054210 | 52 | 38 | 0.9 | 4.3 | 0.00 | 0.00 | 0.00 | 52 | 1033.5 |
| 20260505053708 | 52 | 349 | 0.0 | 4.3 | 0.00 | 0.00 | 0.00 | 52 | 1033.2 |
| 20260505053204 | 53 | 18 | 0.0 | 1.7 | 0.00 | 0.00 | 0.00 | 52 | 1033.2 |
| 20260505052702 | 53 | 348 | 0.9 | 4.3 | 0.00 | 0.00 | 0.00 | 51 | 1033.1 |
| 20260505052158 | 53 | 6 | 0.9 | 2.6 | 0.00 | 0.00 | 0.00 | 50 | 1033.1 |
| 20260505051656 | 53 | 341 | 0.9 | 5.2 | 0.00 | 0.00 | 0.00 | 50 | 1033.1 |
| 20260505051154 | 53 | 242 | 0.9 | 5.2 | 0.00 | 0.00 | 0.00 | 51 | 1033.3 |
| 20260505050651 | 53 | 358 | 0.9 | 2.6 | 0.00 | 0.00 | 0.00 | 52 | 1032.9 |
| 20260505050149 | 54 | 16 | 0.0 | 2.6 | 0.00 | 0.00 | 0.00 | 50 | 1032.9 |
| 20260505041619 | 55 | 339 | 1.7 | 5.2 | 0.00 | 0.00 | 0.00 | 47 | 1032.1 |
| 20260505041116 | 56 | 290 | 2.6 | 5.2 | 0.00 | 0.00 | 0.00 | 46 | 1032.3 |
| 20260505040613 | 56 | 356 | 0.9 | 4.3 | 0.00 | 0.00 | 0.00 | 46 | 1032.1 |
| 20260505040110 | 56 | 12 | 0.9 | 4.3 | 0.00 | 0.00 | 0.00 | 44 | 1032.0 |
| 20260505035607 | 56 | 342 | 1.7 | 1.7 | 0.00 | 0.00 | 0.00 | 44 | 1032.1 |
| 20260505035103 | 56 | 293 | 1.7 | 2.6 | 0.00 | 0.00 | 0.00 | 44 | 1032.1 |
| 20260505034600 | 57 | 318 | 0.9 | 1.7 | 0.00 | 0.00 | 0.00 | 44 | 1031.9 |
| 20260505034056 | 56 | 338 | 0.9 | 4.3 | 0.00 | 0.00 | 0.00 | 43 | 1032.1 |
| 20260505033553 | 56 | 317 | 0.9 | 1.7 | 0.00 | 0.00 | 0.00 | 44 | 1032.0 |
| 20260505033052 | 56 | 1 | 0.0 | 2.6 | 0.00 | 0.00 | 0.00 | 43 | 1031.9 |
| 20260505032549 | 57 | 4 | 0.9 | 2.6 | 0.00 | 0.00 | 0.00 | 43 | 1031.9 |
| 20260505032045 | 57 | 7 | 0.0 | 0.9 | 0.00 | 0.00 | 0.00 | 44 | 1031.9 |
| 20260505031543 | 57 | 355 | 0.9 | 1.7 | 0.00 | 0.00 | 0.00 | 41 | 1032.0 |
| 20260505031039 | 58 | 341 | 0.9 | 1.7 | 0.00 | 0.00 | 0.00 | 41 | 1031.8 |
| 20260505030536 | 58 | 342 | 0.9 | 2.6 | 0.00 | 0.00 | 0.00 | 40 | 1031.6 |
| 20260505030032 | 58 | 352 | 0.9 | 1.7 | 0.00 | 0.00 | 0.00 | 39 | 1031.4 |
| 20260505025528 | 58 | 336 | 2.6 | 2.6 | 0.00 | 0.00 | 0.00 | 39 | 1031.7 |
| 20260505025027 | 58 | 315 | 2.6 | 4.3 | 0.00 | 0.00 | 0.00 | 39 | 1031.6 |
| 20260505024524 | 58 | 301 | 0.9 | 1.7 | 0.00 | 0.00 | 0.00 | 39 | 1031.3 |
| 20260505024021 | 58 | 349 | 2.6 | 2.6 | 0.00 | 0.00 | 0.00 | 40 | 1031.2 |
| 20260505023518 | 58 | 2 | 0.0 | 2.6 | 0.00 | 0.00 | 0.00 | 39 | 1031.3 |
| 20260505023016 | 59 | 321 | 2.6 | 4.3 | 0.00 | 0.00 | 0.00 | 38 | 1031.2 |
| 20260505022513 | 59 | 332 | 0.9 | 1.7 | 0.00 | 0.00 | 0.00 | 39 | 1030.8 |
| 20260505022010 | 59 | 316 | 0.9 | 4.3 | 0.00 | 0.00 | 0.00 | 37 | 1030.6 |
| 20260505021506 | 60 | 333 | 0.9 | 2.6 | 0.00 | 0.00 | 0.00 | 36 | 1030.4 |
| 20260505021003 | 60 | 302 | 3.5 | 7.0 | 0.00 | 0.00 | 0.00 | 36 | 1030.2 |
| 20260505020458 | 60 | 342 | 0.9 | 5.2 | 0.00 | 0.00 | 0.00 | 36 | 1029.8 |
| 20260505015954 | 60 | 332 | 0.9 | 5.2 | 0.00 | 0.00 | 0.00 | 37 | 1029.8 |
| 20260505015452 | 60 | 324 | 1.7 | 4.3 | 0.00 | 0.00 | 0.00 | 37 | 1029.7 |
| 20260505014949 | 60 | 284 | 1.7 | 2.6 | 0.00 | 0.00 | 0.00 | 38 | 1029.8 |
| 20260505014446 | 60 | 322 | 1.7 | 5.2 | 0.00 | 0.00 | 0.00 | 38 | 1029.6 |
| 20260505013943 | 61 | 2 | 0.9 | 2.6 | 0.00 | 0.00 | 0.00 | 39 | 1029.7 |
| 20260505013440 | 62 | 309 | 1.7 | 4.3 | 0.00 | 0.00 | 0.00 | 38 | 1029.5 |
| 20260505012937 | 62 | 280 | 1.7 | 5.2 | 0.00 | 0.00 | 0.00 | 37 | 1029.4 |
| 20260505012435 | 62 | 277 | 2.6 | 4.3 | 0.00 | 0.00 | 0.00 | 38 | 1029.7 |
| 20260505011932 | 63 | 289 | 3.5 | 7.0 | 0.00 | 0.00 | 0.00 | 38 | 1029.6 |
| 20260505011428 | 63 | 356 | 1.7 | 7.0 | 0.00 | 0.00 | 0.00 | 38 | 1029.4 |
| 20260505010925 | 63 | 356 | 3.5 | 7.0 | 0.00 | 0.00 | 0.00 | 38 | 1029.1 |
| 20260505010420 | 63 | 45 | 4.3 | 9.6 | 0.00 | 0.00 | 0.00 | 38 | 1029.4 |
| 20260505005916 | 64 | 279 | 1.7 | 7.0 | 0.00 | 0.00 | 0.00 | 38 | 1029.1 |
| 20260505005414 | 64 | 346 | 1.7 | 1.7 | 0.00 | 0.00 | 0.00 | 38 | 1028.8 |
| 20260505004911 | 65 | 269 | 3.5 | 7.0 | 0.00 | 0.00 | 0.00 | 36 | 1028.6 |
| 20260505004408 | 66 | 3 | 0.9 | 7.0 | 0.00 | 0.00 | 0.00 | 37 | 1028.2 |
| 20260505003905 | 66 | 283 | 2.6 | 11.3 | 0.00 | 0.00 | 0.00 | 36 | 1028.0 |
| 20260505003402 | 67 | 243 | 2.6 | 7.0 | 0.00 | 0.00 | 0.00 | 36 | 1027.8 |
| 20260505002858 | 67 | 48 | 1.7 | 11.3 | 0.00 | 0.00 | 0.00 | 36 | 1027.7 |
| 20260505002354 | 68 | 309 | 4.3 | 7.0 | 0.00 | 0.00 | 0.00 | 35 | 1027.7 |
| 20260505001853 | 69 | 17 | 3.5 | 6.1 | 0.00 | 0.00 | 0.00 | 36 | 1027.5 |
| 20260505001349 | 69 | 14 | 1.7 | 5.2 | 0.00 | 0.00 | 0.00 | 35 | 1027.5 |
| 20260505000847 | 70 | 308 | 5.2 | 13.9 | 0.00 | 0.00 | 0.00 | 33 | 1027.5 |
| 20260505000345 | 70 | 288 | 5.2 | 12.2 | 0.00 | 0.00 | 0.00 | 33 | 1027.5 |
| 20260504235841 | 71 | 282 | 4.3 | 6.1 | 0.00 | 0.00 | 0.00 | 34 | 1027.2 |
| 20260504235338 | 71 | 357 | 3.5 | 11.3 | 0.00 | 0.00 | 0.00 | 35 | 1027.3 |
| 20260504234835 | 71 | 337 | 4.3 | 14.8 | 0.00 | 0.00 | 0.00 | 34 | 1027.4 |
| 20260504234332 | 72 | 297 | 5.2 | 8.7 | 0.00 | 0.00 | 0.00 | 34 | 1027.2 |
| 20260504233829 | 72 | 332 | 1.7 | 7.0 | 0.00 | 0.00 | 0.00 | 37 | 1026.9 |
| 20260504233324 | 73 | 357 | 4.3 | 8.7 | 0.00 | 0.00 | 0.00 | 37 | 1027.1 |
| 20260504232821 | 73 | 235 | 4.3 | 7.0 | 0.00 | 0.00 | 0.00 | 37 | 1027.1 |
| 20260504232319 | 74 | 275 | 2.6 | 5.2 | 0.00 | 0.00 | 0.00 | 38 | 1027.0 |
| 20260504231815 | 75 | 254 | 4.3 | 8.7 | 0.00 | 0.00 | 0.00 | 37 | 1026.5 |
| 20260504231312 | 76 | 346 | 2.6 | 6.1 | 0.00 | 0.00 | 0.00 | 37 | 1026.5 |
| 20260504230808 | 76 | 293 | 3.5 | 5.2 | 0.00 | 0.00 | 0.00 | 37 | 1026.3 |
| 20260504230306 | 76 | 292 | 3.5 | 7.0 | 0.00 | 0.00 | 0.00 | 37 | 1026.5 |
| 20260504225805 | 76 | 7 | 0.9 | 7.8 | 0.00 | 0.00 | 0.00 | 38 | 1026.3 |
| 20260504225301 | 77 | 13 | 1.7 | 7.0 | 0.00 | 0.00 | 0.00 | 37 | 1026.4 |
| 20260504224758 | 77 | 306 | 1.7 | 7.0 | 0.00 | 0.00 | 0.00 | 38 | 1026.5 |
| 20260504224255 | 77 | 325 | 3.5 | 6.1 | 0.00 | 0.00 | 0.00 | 38 | 1026.1 |
| 20260504223751 | 78 | 263 | 5.2 | 12.2 | 0.00 | 0.00 | 0.00 | 38 | 1026.5 |
| 20260504223247 | 78 | 302 | 1.7 | 6.1 | 0.00 | 0.00 | 0.00 | 37 | 1026.2 |
| 20260504222744 | 78 | 269 | 2.6 | 6.1 | 0.00 | 0.00 | 0.00 | 35 | 1026.0 |
| 20260504222241 | 77 | 217 | 2.6 | 13.0 | 0.00 | 0.00 | 0.00 | 38 | 1026.0 |
| 20260504221739 | 77 | 191 | 6.1 | 9.6 | 0.00 | 0.00 | 0.00 | 39 | 1026.1 |
| 20260504221236 | 78 | 266 | 2.6 | 7.0 | 0.00 | 0.00 | 0.00 | 37 | 1026.1 |
| 20260504220732 | 77 | 355 | 0.9 | 2.6 | 0.00 | 0.00 | 0.00 | 36 | 1026.0 |
| 20260504220229 | 77 | 8 | 1.7 | 4.3 | 0.00 | 0.00 | 0.00 | 36 | 1026.0 |
| 20260504215727 | 78 | 299 | 4.3 | 5.2 | 0.00 | 0.00 | 0.00 | 34 | 1026.1 |
| 20260504215223 | 78 | 213 | 2.6 | 5.2 | 0.00 | 0.00 | 0.00 | 37 | 1026.0 |
| 20260504214719 | 77 | 265 | 1.7 | 6.1 | 0.00 | 0.00 | 0.00 | 36 | 1026.1 |
| 20260504214215 | 76 | 352 | 2.6 | 5.2 | 0.00 | 0.00 | 0.00 | 34 | 1026.3 |
| 20260504213712 | 77 | 196 | 2.6 | 5.2 | 0.00 | 0.00 | 0.00 | 34 | 1026.2 |
| 20260504213209 | 77 | 303 | 3.5 | 9.6 | 0.00 | 0.00 | 0.00 | 35 | 1026.2 |
| 20260504212706 | 76 | 188 | 1.7 | 4.3 | 0.00 | 0.00 | 0.00 | 35 | 1026.2 |
| 20260504212202 | 76 | 168 | 3.5 | 8.7 | 0.00 | 0.00 | 0.00 | 36 | 1026.2 |
| 20260504211700 | 76 | 197 | 4.3 | 7.0 | 0.00 | 0.00 | 0.00 | 36 | 1026.2 |
| 20260504211156 | 77 | 251 | 7.8 | 11.3 | 0.00 | 0.00 | 0.00 | 35 | 1026.3 |
| 20260504210654 | 78 | 194 | 2.6 | 6.1 | 0.00 | 0.00 | 0.00 | 35 | 1026.3 |
| 20260504210150 | 78 | 217 | 2.6 | 7.8 | 0.00 | 0.00 | 0.00 | 35 | 1026.2 |
| 20260504205647 | 78 | 259 | 7.0 | 13.0 | 0.00 | 0.00 | 0.00 | 36 | 1026.4 |
| 20260504205144 | 79 | 183 | 8.7 | 9.6 | 0.00 | 0.00 | 0.00 | 39 | 1026.5 |
| 20260504204643 | 77 | 204 | 6.1 | 12.2 | 0.00 | 0.00 | 0.00 | 36 | 1026.6 |
| 20260504204142 | 77 | 168 | 7.8 | 11.3 | 0.00 | 0.00 | 0.00 | 38 | 1026.5 |
| 20260504203640 | 77 | 179 | 10.4 | 13.0 | 0.00 | 0.00 | 0.00 | 37 | 1026.6 |
| 20260504203137 | 78 | 239 | 6.1 | 15.6 | 0.00 | 0.00 | 0.00 | 37 | 1026.5 |
| 20260504202637 | 78 | 300 | 1.7 | 8.7 | 0.00 | 0.00 | 0.00 | 37 | 1026.6 |
| 20260504202134 | 76 | 206 | 7.8 | 11.3 | 0.00 | 0.00 | 0.00 | 40 | 1026.7 |
| 20260504201631 | 77 | 195 | 9.6 | 15.6 | 0.00 | 0.00 | 0.00 | 38 | 1026.8 |
| 20260504201129 | 78 | 209 | 7.8 | 14.8 | 0.00 | 0.00 | 0.00 | 37 | 1026.7 |
| 20260504200626 | 76 | 190 | 6.1 | 12.2 | 0.00 | 0.00 | 0.00 | 41 | 1027.1 |
| 20260504200123 | 76 | 186 | 5.2 | 8.7 | 0.00 | 0.00 | 0.00 | 39 | 1027.0 |
| 20260504195618 | 77 | 184 | 6.1 | 8.7 | 0.00 | 0.00 | 0.00 | 39 | 1027.0 |
| 20260504195115 | 78 | 196 | 7.8 | 13.9 | 0.00 | 0.00 | 0.00 | 39 | 1027.0 |
| 20260504194612 | 78 | 136 | 10.4 | 15.6 | 0.00 | 0.00 | 0.00 | 37 | 1027.0 |
| 20260504194107 | 78 | 183 | 6.1 | 9.6 | 0.00 | 0.00 | 0.00 | 37 | 1027.1 |
| 20260504193604 | 78 | 209 | 7.0 | 12.2 | 0.00 | 0.00 | 0.00 | 39 | 1027.1 |
| 20260504193103 | 79 | 203 | 11.3 | 17.4 | 0.00 | 0.00 | 0.00 | 38 | 1027.1 |
| 20260504192600 | 78 | 277 | 3.5 | 5.2 | 0.00 | 0.00 | 0.00 | 35 | 1027.2 |
| 20260504192058 | 78 | 184 | 14.8 | 18.2 | 0.00 | 0.00 | 0.00 | 37 | 1027.4 |
| 20260504191556 | 78 | 182 | 8.7 | 13.9 | 0.00 | 0.00 | 0.00 | 39 | 1027.2 |
| 20260504191052 | 78 | 191 | 8.7 | 9.6 | 0.00 | 0.00 | 0.00 | 38 | 1027.3 |
| 20260504190548 | 78 | 176 | 5.2 | 11.3 | 0.00 | 0.00 | 0.00 | 37 | 1027.6 |
| 20260504190044 | 78 | 304 | 3.5 | 6.1 | 0.00 | 0.00 | 0.00 | 34 | 1027.5 |
| 20260504185542 | 77 | 176 | 4.3 | 12.2 | 0.00 | 0.00 | 0.00 | 37 | 1027.6 |
| 20260504185038 | 78 | 184 | 9.6 | 13.0 | 0.00 | 0.00 | 0.00 | 40 | 1027.6 |